Location: Arroyo Retuerta
(40.5469°N, 4.3534°W)
Time: 12:14:04
(UTC+00:00)

ASTRO E2 - Pass Details

Date: 01 June 2020
Orbit: 510 x 516 km, 31.4° (Epoch: 05 July)

Event Time Altitude Azimuth Distance (km) Brightness Sun altitude
Rises 20:06:53 0° 233° (SW) 2,597 6.5 -4.8°
Reaches altitude 10° 20:09:38 10° 214° (SW) 1,713 5.3 -5.2°
Maximum altitude 20:12:22 18° 170° (S) 1,284 4.3 -5.6°
Drops below altitude 10° 20:15:07 10° 125° (SE) 1,717 4.6 -6.0°
Enters shadow 20:15:46 - 119° (ESE) 1,907 4.9 -6.1°
